User: anonymous   Login
Location: Poughquag
(41.6090°N, 73.6820°W)
Time: 14:34:35
(UTC-05:00)
Language:

Tiros 1 despin weight - Orbit

View from above orbital plane
View from above orbital plane
View from above satellite
View from above satellite

Ground track
Ground track

The orbit data is extracted from the following two-line orbital elements,

1   115U 60002D   20056.44510463 -.00000061  00000-0  19987-4 0  9991
2   115  48.1664  97.6275 0033907 111.7629 248.6898 14.83539341196195
Epoch (UTC): 25 February 2020 10:40:57
Eccentricity: 0.0033907
inclination: 48.1664°
perigee height: 594 km
apogee height: 642 km
right ascension of ascending node: 97.6275°
argument of perigee: 111.7629°
revolutions per day: 14.83539341
mean anomaly at epoch: 248.6898°
orbit number at epoch: 19619

The dashed part of the orbit path shows where the satellite is in the earth's shadow,  

DLR